Torna al catalogo

YUNHAI 3

AttivoMeteoSSO
NORAD 54235·PAYLOAD·🇨🇳 China

Lanciato Nov 11, 2022 da Taiyuan Satellite Launch Center

Loading…

Prossimi Passaggi (prossime 24 ore)

TLE

AggiornatoSource: Space-Track

Epoca: Sep 14, 2026, 14:54 UTC

1 54235U 22151A   26257.62131300 -.00000019  00000-0  13490-4 0  9990
2 54235  98.8214 263.7701 0000959 154.0239 206.0982 14.13373204197570

Traccia YUNHAI 3 in tempo reale con AllMySat

Download on the App Store